{"data":{"norad_id":40118,"epoch":"2026-09-20T04:09:10.489248Z","epoch_age_seconds":42604,"freshness":"FRESH","line1":"1 40118U 14049A   26263.17303807  .00000246  00000+0  38702-4 0  9995","line2":"2 40118  98.0015 327.2463 0006024 291.0350  69.0217 14.81003665653292","mean_motion":14.81003665,"eccentricity":0.0006024,"inclination_deg":98.0015,"raan_deg":327.2463,"arg_perigee_deg":291.035,"mean_anomaly_deg":69.0217,"bstar":3.8702e-5,"rev_number":65329,"period_min":97.231359653658,"perigee_km":621.93845418511,"apogee_km":630.37722861003,"semimajor_km":7004.2948413976,"source":"CELESTRAK","updated_at":"2026-09-20T09:00:33.961865Z"}}